カタログに戻る

COSMOS 886 DEB

運用中LEO
NORAD 9724·DEBRIS·🇷🇺 Russia

打ち上げ Dec 27, 1976 から Baikonur Cosmodrome

Loading…

次のパス (今後24時間)

TLE

最新Source: Space-Track

元期: Sep 14, 2026, 00:52 UTC

1 09724U 76126V   26257.03672960  .00000600  00000-0  29607-3 0  9992
2 09724  65.8186 276.7648 0762795 121.6719 246.1026 13.27504349349387

AllMySatでCOSMOS 886 DEBをリアルタイム追跡

Download on the App Store